Overview Statistics Trail Chart Weather Telemetry Raw packets
 

This is the latest recevied weather packets stored in our database for station/object KG5MMT-15. If no packets are shown the sender has not sent any weather packets the latest 10 day(s).

<< 1 2 3 4 >>
Time Temp. Humidity Pressure Rain* Wind** Luminosity Snow
1788705157 22.22° C 53% 0 hPa 0 mm - - -
1788704857 21.67° C 54% 0 hPa 0 mm - - -
1788704593 21.11° C 55% 0 hPa 0 mm - - -
1788704257 20.56° C 57% 0 hPa 0 mm - - -
1788703957 20° C 59% 0 hPa 0 mm - - -
1788703657 19.44° C 63% 0 hPa 0 mm - - -
1788703357 18.89° C 66% 0 hPa 0 mm - - -
1788703057 18.33° C 67% 0 hPa 0 mm - - -
1788702757 18.33° C 68% 0 hPa 0 mm - - -
1788702457 17.78° C 69% 0 hPa 0 mm - - -
1788702157 17.78° C 71% 0 hPa 0 mm - - -
1788701857 17.78° C 68% 0 hPa 0 mm - - -
1788701557 17.78° C 67% 0 hPa 0 mm - - -
1788701257 17.22° C 66% 0 hPa 0 mm - - -
1788700957 17.22° C 69% 0 hPa 0 mm - - -
1788700657 17.22° C 69% 0 hPa 0 mm - - -
1788700357 16.67° C 70% 0 hPa 0 mm - - -
1788700057 16.11° C 72% 0 hPa 0 mm - - -
1788699757 16.11° C 74% 0 hPa 0 mm - - -
1788699457 15.56° C 75% 0 hPa 0 mm - - -
1788699158 15.56° C 76% 0 hPa 0 mm - - -
1788698857 15.56° C 77% 0 hPa 0 mm - - -
1788698558 15.56° C 76% 0 hPa 0 mm - - -
1788698258 15.56° C 76% 0 hPa 0 mm - - -
1788697958 15.56° C 76% 0 hPa 0 mm - - -

* Rain latest hour (hover to see other rain measurements)
** Current wind speed in m/s (hover to see current wind gust speed)